DLH9PZ DNAA-EDDF

Flight info

Callsign DLH9PZ
Flight time 5h 28m
Altitude 35000
Route OXORU1Q OXORU DCT MIMBA UA604 AS UR978 CSO UA605 CIRTA DCT ERETI DCT OMARD DCT NOSTA DCT NOPMU DCT ABESI DCT LADOL T163 EMPAX EMPAX5B
Aircraft A343/H-SDE2E3FGHIJ4J5M1RWXY/LB1D1

Departure

Time 2026-05-07 04:19
Airport Nnamdi Azikiwe International Airport (DNAA)

Arrival

Time 2026-05-07 09:48
Airport Frankfurt Main Airport (EDDF)
Time Latitude Longitude Altitude Speed Heading
2026-05-07 03:47 9.00708 7.26767 1134 ft 0 kts 179°
2026-05-07 04:12 9.00706 7.26766 1126 ft 1 kts 187°
2026-05-07 04:12 9.00703 7.26760 1129 ft 1 kts 230°
2026-05-07 04:13 9.00709 7.26745 1135 ft 5 kts 293°
2026-05-07 04:13 9.00744 7.26684 1133 ft 13 kts 303°
2026-05-07 04:13 9.00809 7.26632 1119 ft 12 kts 351°
2026-05-07 04:13 9.00881 7.26666 1119 ft 11 kts 36°
2026-05-07 04:14 9.00950 7.26717 1116 ft 13 kts 36°
2026-05-07 04:14 9.01021 7.26766 1118 ft 12 kts 33°
2026-05-07 04:14 9.01087 7.26810 1116 ft 10 kts 34°
2026-05-07 04:14 9.01138 7.26846 1134 ft 8 kts 34°
2026-05-07 04:15 9.01178 7.26874 1134 ft 6 kts 34°
2026-05-07 04:15 9.01231 7.26910 1135 ft 13 kts 34°
2026-05-07 04:15 9.01325 7.26976 1136 ft 18 kts 34°
2026-05-07 04:15 9.01427 7.27048 1136 ft 17 kts 35°
2026-05-07 04:16 9.01519 7.27113 1137 ft 16 kts 35°
2026-05-07 04:16 9.01609 7.27178 1136 ft 16 kts 35°
2026-05-07 04:16 9.01698 7.27241 1136 ft 15 kts 35°
2026-05-07 04:16 9.01778 7.27297 1136 ft 13 kts 35°
2026-05-07 04:17 9.01851 7.27348 1139 ft 14 kts 34°
2026-05-07 04:17 9.01933 7.27352 1138 ft 11 kts 323°
2026-05-07 04:17 9.01974 7.27293 1139 ft 10 kts 298°
2026-05-07 04:17 9.01967 7.27233 1136 ft 8 kts 234°
2026-05-07 04:18 9.01916 7.27195 1139 ft 16 kts 214°
2026-05-07 04:18 9.01661 7.27015 1138 ft 72 kts 215°
2026-05-07 04:18 9.01112 7.26624 1116 ft 120 kts 215°
2026-05-07 04:18 9.00313 7.26057 1111 ft 159 kts 215°
2026-05-07 04:19 8.99347 7.25378 1462 ft 162 kts 215°
2026-05-07 04:19 8.98235 7.24907 1506 ft 198 kts 194°
2026-05-07 04:19 8.97026 7.24195 1848 ft 210 kts 223°
2026-05-07 04:19 8.96361 7.22850 2257 ft 228 kts 264°
2026-05-07 04:20 8.96762 7.21313 2878 ft 231 kts 305°
2026-05-07 04:20 8.98053 7.20398 3701 ft 231 kts 341°
2026-05-07 04:20 8.99655 7.20102 4385 ft 232 kts 352°
2026-05-07 04:21 9.02763 7.19298 4894 ft 233 kts 338°
2026-05-07 04:21 9.04271 7.18692 4905 ft 234 kts 335°
2026-05-07 04:21 9.05764 7.18038 4908 ft 234 kts 334°
2026-05-07 04:21 9.07250 7.17357 4914 ft 235 kts 334°
2026-05-07 04:22 9.08729 7.16666 4909 ft 234 kts 333°
2026-05-07 04:22 9.10201 7.15970 4903 ft 234 kts 333°
2026-05-07 04:22 9.11673 7.15269 4907 ft 234 kts 333°
2026-05-07 04:22 9.13146 7.14564 4914 ft 234 kts 333°
2026-05-07 04:23 9.14675 7.14005 4900 ft 235 kts 349°
2026-05-07 04:23 9.16295 7.14109 4988 ft 235 kts 14°
2026-05-07 04:23 9.17891 7.14594 5194 ft 247 kts 17°
2026-05-07 04:23 9.19593 7.15162 5464 ft 267 kts 18°
2026-05-07 04:24 9.21391 7.15761 5952 ft 275 kts 18°
2026-05-07 04:24 9.23214 7.16365 6622 ft 275 kts 18°
2026-05-07 04:24 9.25034 7.16963 7297 ft 275 kts 19°
2026-05-07 04:24 9.26855 7.17561 7974 ft 275 kts 19°
2026-05-07 04:25 9.28672 7.18155 8676 ft 274 kts 20°
2026-05-07 04:25 9.30482 7.18747 9391 ft 273 kts 20°
2026-05-07 04:25 9.32287 7.19336 10071 ft 272 kts 21°
2026-05-07 04:25 9.34129 7.19940 10390 ft 286 kts 21°
2026-05-07 04:26 9.36073 7.20579 10597 ft 302 kts 21°
2026-05-07 04:26 9.38119 7.21250 10798 ft 317 kts 21°
2026-05-07 04:26 9.40267 7.21953 10995 ft 331 kts 21°
2026-05-07 04:26 9.42508 7.22685 11191 ft 345 kts 21°
2026-05-07 04:27 9.44833 7.23445 11398 ft 357 kts 21°
2026-05-07 04:27 9.47216 7.24222 11751 ft 363 kts 21°
2026-05-07 04:27 9.49636 7.25011 12146 ft 368 kts 21°
2026-05-07 04:27 9.52090 7.25813 12558 ft 372 kts 21°
2026-05-07 04:28 9.54570 7.26623 12996 ft 377 kts 21°
2026-05-07 04:28 9.57075 7.27441 13448 ft 380 kts 21°
2026-05-07 04:28 9.59607 7.28269 13873 ft 384 kts 21°
2026-05-07 04:28 9.62162 7.29105 14258 ft 388 kts 21°
2026-05-07 04:29 9.64739 7.29948 14679 ft 391 kts 21°
2026-05-07 04:29 9.67338 7.30798 15093 ft 394 kts 21°
2026-05-07 04:29 9.69960 7.31656 15495 ft 398 kts 21°
2026-05-07 04:29 9.72602 7.32520 15900 ft 401 kts 20°
2026-05-07 04:30 9.75269 7.33393 16309 ft 404 kts 20°
2026-05-07 04:30 9.77957 7.34273 16715 ft 408 kts 20°
2026-05-07 04:30 9.80669 7.35162 17116 ft 411 kts 20°
2026-05-07 04:30 9.83405 7.36058 17521 ft 415 kts 20°
2026-05-07 04:31 9.86166 7.36963 17919 ft 419 kts 20°
2026-05-07 04:31 9.88952 7.37868 18302 ft 423 kts 19°
2026-05-07 04:31 9.91770 7.38760 18657 ft 426 kts 19°
2026-05-07 04:31 9.94609 7.39645 19050 ft 427 kts 19°
2026-05-07 04:32 9.97459 7.40531 19454 ft 429 kts 19°
2026-05-07 04:32 10.00319 7.41420 19819 ft 431 kts 19°
2026-05-07 04:32 10.03197 7.42319 20190 ft 434 kts 19°
2026-05-07 04:32 10.06087 7.43224 20550 ft 436 kts 19°
2026-05-07 04:33 10.08989 7.44135 20906 ft 438 kts 19°
2026-05-07 04:33 10.10916 7.44741 21145 ft 439 kts 19°
2026-05-07 04:33 10.14830 7.45972 21637 ft 441 kts 19°
2026-05-07 04:33 10.16772 7.46582 21881 ft 442 kts 19°
2026-05-07 04:34 10.19760 7.47523 22225 ft 444 kts 19°
2026-05-07 04:34 10.22679 7.48441 22553 ft 446 kts 19°
2026-05-07 04:34 10.25693 7.49389 22894 ft 448 kts 19°
2026-05-07 04:34 10.28641 7.50317 23218 ft 450 kts 19°
2026-05-07 04:35 10.31681 7.51274 23542 ft 452 kts 19°
2026-05-07 04:35 10.34693 7.52223 23797 ft 454 kts 19°
2026-05-07 04:35 10.37677 7.53162 24064 ft 456 kts 19°
2026-05-07 04:35 10.40751 7.54130 24345 ft 457 kts 19°
2026-05-07 04:36 10.43792 7.55088 24619 ft 458 kts 18°
2026-05-07 04:36 10.46845 7.56050 24891 ft 460 kts 18°
2026-05-07 04:36 10.49903 7.57014 25173 ft 461 kts 18°
2026-05-07 04:36 10.52973 7.57981 25445 ft 462 kts 18°
2026-05-07 04:37 10.56047 7.58950 25748 ft 463 kts 18°
2026-05-07 04:37 10.59127 7.59922 26041 ft 464 kts 18°
2026-05-07 04:37 10.62207 7.60893 26365 ft 464 kts 18°
2026-05-07 04:37 10.65259 7.61856 26606 ft 466 kts 18°
2026-05-07 04:38 10.68354 7.62833 26877 ft 467 kts 18°
2026-05-07 04:38 10.71465 7.63814 27116 ft 469 kts 18°
2026-05-07 04:38 10.74583 7.64799 27395 ft 470 kts 18°
2026-05-07 04:38 10.77710 7.65786 27647 ft 472 kts 18°
2026-05-07 04:39 10.80844 7.66776 27927 ft 472 kts 18°
2026-05-07 04:39 10.83991 7.67770 28159 ft 474 kts 18°
2026-05-07 04:39 10.87147 7.68767 28420 ft 475 kts 18°
2026-05-07 04:39 10.90311 7.69767 28641 ft 477 kts 18°
2026-05-07 04:40 10.93485 7.70771 28881 ft 478 kts 18°
2026-05-07 04:40 10.96668 7.71777 29099 ft 480 kts 18°
2026-05-07 04:40 10.99863 7.72787 29352 ft 481 kts 17°
2026-05-07 04:40 11.03050 7.73795 29685 ft 480 kts 17°
2026-05-07 04:41 11.06233 7.74802 30015 ft 478 kts 17°
2026-05-07 04:41 11.09407 7.75807 30283 ft 477 kts 17°
2026-05-07 04:41 11.12578 7.76811 30518 ft 477 kts 17°
2026-05-07 04:41 11.15748 7.77814 30732 ft 477 kts 17°
2026-05-07 04:42 11.18920 7.78818 30959 ft 477 kts 17°
2026-05-07 04:42 11.22086 7.79821 31180 ft 477 kts 16°
2026-05-07 04:42 11.25260 7.80827 31372 ft 478 kts 16°
2026-05-07 04:42 11.28437 7.81834 31531 ft 479 kts 16°
2026-05-07 04:43 11.31621 7.82843 31770 ft 478 kts 16°
2026-05-07 04:43 11.34796 7.83850 31955 ft 479 kts 16°
2026-05-07 04:43 11.37981 7.84860 32178 ft 478 kts 15°
2026-05-07 04:43 11.41157 7.85867 32373 ft 479 kts 15°
2026-05-07 04:44 11.44336 7.86876 32581 ft 478 kts 15°
2026-05-07 04:44 11.47515 7.87885 32760 ft 479 kts 15°
2026-05-07 04:44 11.50696 7.88895 32947 ft 479 kts 15°
2026-05-07 04:44 11.53876 7.89904 33131 ft 479 kts 15°
2026-05-07 04:45 11.57059 7.90915 33313 ft 479 kts 15°
2026-05-07 04:45 11.60236 7.91925 33602 ft 476 kts 15°
2026-05-07 04:45 11.63387 7.92926 33899 ft 474 kts 15°
2026-05-07 04:45 11.66539 7.93929 34056 ft 474 kts 15°
2026-05-07 04:46 11.69684 7.94928 34182 ft 474 kts 15°
2026-05-07 04:46 11.72835 7.95930 34307 ft 475 kts 15°
2026-05-07 04:46 11.75989 7.96933 34448 ft 475 kts 15°
2026-05-07 04:46 11.79137 7.97934 34623 ft 473 kts 15°
2026-05-07 04:47 11.82278 7.98934 34806 ft 472 kts 15°
2026-05-07 04:47 11.85419 7.99934 34869 ft 474 kts 15°
2026-05-07 04:47 11.91749 8.01948 34875 ft 477 kts 15°
2026-05-07 04:48 11.98076 8.03964 34880 ft 475 kts 15°
2026-05-07 04:48 12.04378 8.05973 34873 ft 474 kts 15°
2026-05-07 04:49 12.10684 8.07983 34873 ft 475 kts 15°
2026-05-07 04:49 12.16986 8.09993 34871 ft 475 kts 15°
2026-05-07 04:50 12.23293 8.12006 34868 ft 475 kts 15°
2026-05-07 04:50 12.29596 8.14019 34869 ft 475 kts 15°
2026-05-07 04:51 12.35907 8.16035 34863 ft 476 kts 15°
2026-05-07 04:51 12.42227 8.18055 34866 ft 476 kts 15°
2026-05-07 04:52 12.48550 8.20077 34865 ft 476 kts 15°
2026-05-07 04:52 12.54876 8.22102 34860 ft 476 kts 15°
2026-05-07 04:53 12.61201 8.24126 34858 ft 476 kts 15°
2026-05-07 04:53 12.67526 8.26153 34855 ft 477 kts 15°
2026-05-07 04:54 12.73857 8.28181 34858 ft 477 kts 15°
2026-05-07 04:54 12.80196 8.30214 34856 ft 477 kts 15°
2026-05-07 04:55 12.86534 8.32247 34854 ft 477 kts 15°
2026-05-07 04:55 12.92870 8.34281 34852 ft 477 kts 15°
2026-05-07 04:56 12.99204 8.36315 34853 ft 476 kts 14°
2026-05-07 04:56 13.05537 8.38278 34853 ft 473 kts 10°
2026-05-07 04:57 13.12017 8.38847 34858 ft 466 kts 355°
2026-05-07 04:57 13.18480 8.38383 34853 ft 466 kts 353°
2026-05-07 04:58 13.24935 8.37748 34852 ft 466 kts 352°
2026-05-07 04:58 13.31389 8.37109 34851 ft 466 kts 352°
2026-05-07 04:59 13.37847 8.36493 34852 ft 466 kts 353°
2026-05-07 04:59 13.44289 8.35891 34850 ft 464 kts 353°
2026-05-07 05:00 13.50717 8.35291 34854 ft 464 kts 353°
2026-05-07 05:00 13.57143 8.34690 34853 ft 464 kts 353°
2026-05-07 05:01 13.63573 8.34088 34852 ft 464 kts 353°
2026-05-07 05:01 13.70016 8.33484 34850 ft 465 kts 353°
2026-05-07 05:02 13.76465 8.32880 34850 ft 465 kts 352°
2026-05-07 05:02 13.82900 8.32276 34853 ft 464 kts 352°
2026-05-07 05:03 13.89336 8.31669 34853 ft 464 kts 352°
2026-05-07 05:03 13.95773 8.31063 34853 ft 464 kts 352°
2026-05-07 05:04 14.02208 8.30456 34854 ft 464 kts 352°
2026-05-07 05:04 14.08641 8.29850 34852 ft 464 kts 352°
2026-05-07 05:05 14.15076 8.29244 34848 ft 464 kts 352°
2026-05-07 05:05 14.21509 8.28637 34848 ft 464 kts 352°
2026-05-07 05:06 14.27942 8.28029 34844 ft 464 kts 352°
2026-05-07 05:06 14.34371 8.27422 34843 ft 464 kts 352°
2026-05-07 05:07 14.40803 8.26814 34843 ft 464 kts 352°
2026-05-07 05:07 14.47235 8.26206 34843 ft 464 kts 352°
2026-05-07 05:08 14.53670 8.25596 34835 ft 464 kts 352°
2026-05-07 05:08 14.60101 8.24988 34835 ft 464 kts 352°
2026-05-07 05:09 14.66538 8.24378 34837 ft 464 kts 352°
2026-05-07 05:09 14.72970 8.23768 34838 ft 464 kts 352°
2026-05-07 05:10 14.79402 8.23158 34830 ft 464 kts 352°
2026-05-07 05:10 14.85837 8.22547 34833 ft 465 kts 352°
2026-05-07 05:11 14.92281 8.21935 34829 ft 465 kts 352°
2026-05-07 05:11 14.98720 8.21324 34825 ft 465 kts 352°
2026-05-07 05:12 15.05157 8.20712 34826 ft 465 kts 352°
2026-05-07 05:12 15.11597 8.20100 34826 ft 465 kts 352°
2026-05-07 05:13 15.16949 8.19593 34830 ft 465 kts 352°
2026-05-07 05:13 15.23393 8.18982 34829 ft 465 kts 352°
2026-05-07 05:14 15.29841 8.18371 34826 ft 465 kts 352°
2026-05-07 05:14 15.36289 8.17759 34826 ft 465 kts 352°
2026-05-07 05:15 15.42740 8.17146 34827 ft 465 kts 352°
2026-05-07 05:15 15.49189 8.16533 34829 ft 465 kts 352°
2026-05-07 05:16 15.55636 8.15920 34826 ft 465 kts 352°
2026-05-07 05:16 15.62085 8.15306 34825 ft 465 kts 352°
2026-05-07 05:17 15.68535 8.14691 34826 ft 465 kts 352°
2026-05-07 05:17 15.74984 8.14077 34825 ft 465 kts 352°
2026-05-07 05:18 15.81435 8.13462 34829 ft 466 kts 352°
2026-05-07 05:18 15.87888 8.12846 34829 ft 466 kts 352°
2026-05-07 05:19 15.94338 8.12230 34829 ft 466 kts 352°
2026-05-07 05:19 16.00789 8.11613 34829 ft 466 kts 352°
2026-05-07 05:20 16.07244 8.10996 34829 ft 466 kts 352°
2026-05-07 05:20 16.13692 8.10379 34832 ft 465 kts 352°
2026-05-07 05:21 16.23368 8.09453 34829 ft 466 kts 351°
2026-05-07 05:22 16.29823 8.08834 34827 ft 466 kts 351°
2026-05-07 05:22 16.36281 8.08215 34825 ft 466 kts 351°
2026-05-07 05:23 16.42727 8.07597 34825 ft 465 kts 351°
2026-05-07 05:23 16.49164 8.06979 34832 ft 464 kts 351°
2026-05-07 05:24 16.55599 8.06360 34836 ft 465 kts 351°
2026-05-07 05:24 16.62035 8.05742 34830 ft 464 kts 351°
2026-05-07 05:25 16.68466 8.05123 34830 ft 464 kts 351°
2026-05-07 05:25 16.74901 8.04503 34835 ft 464 kts 351°
2026-05-07 05:26 16.81332 8.03883 34828 ft 464 kts 351°
2026-05-07 05:26 16.87766 8.03263 34907 ft 464 kts 351°
2026-05-07 05:27 16.94196 8.02643 34912 ft 464 kts 351°
2026-05-07 05:27 17.00617 8.02040 34913 ft 463 kts 351°
2026-05-07 05:28 17.07052 8.01525 34901 ft 464 kts 352°
2026-05-07 05:28 17.13486 8.01029 34886 ft 463 kts 352°
2026-05-07 05:29 17.19915 8.00521 34869 ft 463 kts 352°
2026-05-07 05:29 17.26343 8.00005 34845 ft 463 kts 351°
2026-05-07 05:30 17.32768 7.99486 34831 ft 463 kts 351°
2026-05-07 05:30 17.39193 7.98968 34836 ft 463 kts 351°
2026-05-07 05:31 17.45612 7.98450 34826 ft 463 kts 351°
2026-05-07 05:31 17.52038 7.97930 34837 ft 463 kts 351°
2026-05-07 05:32 17.58458 7.97411 34834 ft 463 kts 351°
2026-05-07 05:32 17.64883 7.96891 34829 ft 463 kts 351°
2026-05-07 05:33 17.71322 7.96369 34829 ft 465 kts 351°
2026-05-07 05:33 17.77782 7.95846 34827 ft 465 kts 351°
2026-05-07 05:34 17.84237 7.95323 34829 ft 465 kts 351°
2026-05-07 05:34 17.90697 7.94800 34831 ft 465 kts 351°
2026-05-07 05:35 17.97152 7.94277 34828 ft 465 kts 351°
2026-05-07 05:35 18.03609 7.93752 34828 ft 465 kts 351°
2026-05-07 05:36 18.10063 7.93226 34829 ft 465 kts 351°
2026-05-07 05:36 18.16476 7.92704 34827 ft 465 kts 351°
2026-05-07 05:37 18.22976 7.92175 34827 ft 465 kts 351°
2026-05-07 05:37 18.29431 7.91648 34828 ft 465 kts 351°
2026-05-07 05:38 18.35853 7.91125 34828 ft 466 kts 351°
2026-05-07 05:38 18.42319 7.90597 34821 ft 466 kts 351°
2026-05-07 05:39 18.48783 7.90070 34826 ft 466 kts 351°
2026-05-07 05:39 18.55253 7.89542 34818 ft 466 kts 351°
2026-05-07 05:40 18.61718 7.89013 34822 ft 466 kts 351°
2026-05-07 05:40 18.68180 7.88484 34811 ft 466 kts 351°
2026-05-07 05:41 18.74650 7.87953 34811 ft 466 kts 351°
2026-05-07 05:41 18.81161 7.87420 34813 ft 466 kts 351°
2026-05-07 05:42 18.87629 7.86890 34810 ft 466 kts 351°
2026-05-07 05:42 18.94099 7.86359 34811 ft 466 kts 351°
2026-05-07 05:43 19.00568 7.85827 34813 ft 466 kts 350°
2026-05-07 05:43 19.07035 7.85295 34812 ft 466 kts 350°
2026-05-07 05:44 19.13508 7.84762 34812 ft 466 kts 350°
2026-05-07 05:44 19.19935 7.84233 34811 ft 466 kts 350°
2026-05-07 05:45 19.26405 7.83699 34818 ft 466 kts 350°
2026-05-07 05:45 19.32878 7.83166 34820 ft 466 kts 350°
2026-05-07 05:46 19.39353 7.82631 34821 ft 467 kts 350°
2026-05-07 05:46 19.45834 7.82095 34821 ft 467 kts 350°
2026-05-07 05:47 19.52316 7.81561 34819 ft 467 kts 350°
2026-05-07 05:47 19.58803 7.81044 34821 ft 468 kts 350°
2026-05-07 05:48 19.65293 7.80533 34826 ft 467 kts 350°
2026-05-07 05:48 19.71786 7.80019 34827 ft 468 kts 349°
2026-05-07 05:49 19.78286 7.79502 34823 ft 468 kts 349°
2026-05-07 05:49 19.84793 7.78984 34823 ft 469 kts 349°
2026-05-07 05:50 19.91295 7.78466 34822 ft 469 kts 350°
2026-05-07 05:50 19.97797 7.77947 34836 ft 468 kts 349°
2026-05-07 05:51 20.04299 7.77427 34829 ft 469 kts 349°
2026-05-07 05:51 20.10806 7.76907 34825 ft 469 kts 349°
2026-05-07 05:52 20.17311 7.76386 34822 ft 469 kts 349°
2026-05-07 05:52 20.23823 7.75865 34819 ft 469 kts 349°
2026-05-07 05:53 20.30335 7.75343 34826 ft 469 kts 349°
2026-05-07 05:53 20.36848 7.74820 34817 ft 470 kts 349°
2026-05-07 05:54 20.43377 7.74296 34815 ft 471 kts 349°
2026-05-07 05:54 20.48846 7.73856 34805 ft 471 kts 349°
2026-05-07 05:55 20.55376 7.73331 34812 ft 471 kts 349°
2026-05-07 05:55 20.61908 7.72806 34821 ft 471 kts 349°
2026-05-07 05:56 20.68434 7.72281 34807 ft 470 kts 349°
2026-05-07 05:56 20.74964 7.71754 34816 ft 471 kts 349°
2026-05-07 05:57 20.81496 7.71227 34815 ft 471 kts 349°
2026-05-07 05:57 20.88029 7.70699 34821 ft 471 kts 349°
2026-05-07 05:58 20.94562 7.70171 34825 ft 471 kts 349°
2026-05-07 05:58 21.01075 7.69547 34824 ft 468 kts 346°
2026-05-07 05:59 21.07524 7.68598 34816 ft 467 kts 345°
2026-05-07 05:59 21.13958 7.67616 34827 ft 467 kts 345°
2026-05-07 06:00 21.20405 7.66681 34820 ft 468 kts 346°
2026-05-07 06:00 21.26821 7.65780 34822 ft 468 kts 346°
2026-05-07 06:01 21.33276 7.64879 34821 ft 468 kts 346°
2026-05-07 06:01 21.39731 7.63976 34826 ft 468 kts 346°
2026-05-07 06:02 21.46232 7.63063 34838 ft 468 kts 346°
2026-05-07 06:02 21.52644 7.62162 34825 ft 468 kts 346°
2026-05-07 06:03 21.59101 7.61254 34836 ft 468 kts 346°
2026-05-07 06:03 21.65556 7.60346 34834 ft 467 kts 346°
2026-05-07 06:04 21.71986 7.59441 34837 ft 466 kts 346°
2026-05-07 06:04 21.78410 7.58535 34839 ft 466 kts 346°
2026-05-07 06:05 21.84843 7.57625 34835 ft 467 kts 345°
2026-05-07 06:05 21.91284 7.56714 34846 ft 467 kts 346°
2026-05-07 06:06 21.97768 7.55798 34851 ft 467 kts 345°
2026-05-07 06:06 22.04225 7.54884 34851 ft 468 kts 345°
2026-05-07 06:07 22.10645 7.53974 34848 ft 469 kts 345°
2026-05-07 06:07 22.17112 7.53058 34857 ft 469 kts 345°
2026-05-07 06:08 22.23580 7.52140 34856 ft 469 kts 345°
2026-05-07 06:08 22.30093 7.51215 34867 ft 469 kts 345°
2026-05-07 06:09 22.36558 7.50296 34860 ft 469 kts 345°
2026-05-07 06:09 22.43027 7.49374 34870 ft 469 kts 345°
2026-05-07 06:10 22.49497 7.48453 34868 ft 469 kts 345°
2026-05-07 06:10 22.55926 7.47536 34873 ft 469 kts 345°
2026-05-07 06:11 22.62442 7.46605 34884 ft 469 kts 345°
2026-05-07 06:11 22.68866 7.45688 34878 ft 468 kts 345°
2026-05-07 06:12 22.75324 7.44765 34881 ft 468 kts 345°
2026-05-07 06:12 22.81782 7.43840 34887 ft 468 kts 345°
2026-05-07 06:13 22.88236 7.42915 34886 ft 468 kts 345°
2026-05-07 06:13 22.94696 7.41988 34905 ft 468 kts 345°
2026-05-07 06:14 23.01156 7.41061 34891 ft 468 kts 345°
2026-05-07 06:14 23.07611 7.40134 34894 ft 468 kts 345°
2026-05-07 06:15 23.14069 7.39204 34893 ft 468 kts 345°
2026-05-07 06:15 23.20527 7.38274 34903 ft 468 kts 345°
2026-05-07 06:16 23.26987 7.37343 34912 ft 468 kts 345°
2026-05-07 06:16 23.33442 7.36412 34906 ft 468 kts 344°
2026-05-07 06:17 23.39905 7.35479 34906 ft 468 kts 345°
2026-05-07 06:17 23.46367 7.34545 34911 ft 468 kts 344°
2026-05-07 06:18 23.52831 7.33619 34911 ft 469 kts 345°
2026-05-07 06:18 23.59345 7.32904 34926 ft 471 kts 347°
2026-05-07 06:19 23.65870 7.32276 34919 ft 470 kts 347°
2026-05-07 06:19 23.72388 7.31621 34922 ft 470 kts 346°
2026-05-07 06:20 23.78894 7.30939 34925 ft 470 kts 346°
2026-05-07 06:20 23.85397 7.30249 34928 ft 470 kts 346°
2026-05-07 06:21 23.91907 7.29557 34942 ft 470 kts 346°
2026-05-07 06:21 23.98401 7.28869 34931 ft 468 kts 346°
2026-05-07 06:22 24.04885 7.28182 34932 ft 468 kts 346°
2026-05-07 06:22 24.14618 7.27144 34934 ft 469 kts 346°
2026-05-07 06:23 24.21108 7.26453 34931 ft 469 kts 346°
2026-05-07 06:23 24.27596 7.25763 34935 ft 469 kts 346°
2026-05-07 06:24 24.34085 7.25071 34936 ft 469 kts 346°
2026-05-07 06:24 24.40578 7.24377 34941 ft 468 kts 346°
2026-05-07 06:25 24.47067 7.23684 34930 ft 468 kts 346°
2026-05-07 06:25 24.53557 7.22990 34938 ft 468 kts 346°
2026-05-07 06:26 24.60047 7.22295 34933 ft 468 kts 346°
2026-05-07 06:26 24.66535 7.21599 34932 ft 468 kts 346°
2026-05-07 06:27 24.73024 7.20903 34929 ft 469 kts 346°
2026-05-07 06:27 24.79471 7.20212 34934 ft 468 kts 346°
2026-05-07 06:28 24.85958 7.19514 34939 ft 468 kts 346°
2026-05-07 06:28 24.92443 7.18816 34934 ft 468 kts 346°
2026-05-07 06:29 24.98921 7.18118 34935 ft 468 kts 346°
2026-05-07 06:29 25.05407 7.17422 34942 ft 468 kts 346°
2026-05-07 06:30 25.11934 7.16719 34938 ft 468 kts 346°
2026-05-07 06:30 25.18421 7.16019 34950 ft 468 kts 346°
2026-05-07 06:31 25.24880 7.15322 34943 ft 470 kts 346°
2026-05-07 06:31 25.31430 7.14615 34945 ft 470 kts 346°
2026-05-07 06:32 25.37902 7.13917 34945 ft 470 kts 346°
2026-05-07 06:32 25.44419 7.13211 34942 ft 470 kts 346°
2026-05-07 06:33 25.50931 7.12506 34952 ft 470 kts 346°
2026-05-07 06:33 25.57442 7.11800 34953 ft 471 kts 346°
2026-05-07 06:34 25.63967 7.11092 34959 ft 471 kts 346°
2026-05-07 06:34 25.70489 7.10385 34957 ft 471 kts 346°
2026-05-07 06:35 25.77007 7.09675 34962 ft 471 kts 346°
2026-05-07 06:35 25.83537 7.08963 34967 ft 472 kts 346°
2026-05-07 06:36 25.90091 7.08248 34968 ft 473 kts 346°
2026-05-07 06:36 25.95547 7.07656 34960 ft 475 kts 346°
2026-05-07 06:37 26.02111 7.06943 34958 ft 473 kts 346°
2026-05-07 06:37 26.08718 7.06238 34980 ft 476 kts 346°
2026-05-07 06:38 26.15328 7.05525 34956 ft 479 kts 346°
2026-05-07 06:38 26.21955 7.04812 34956 ft 478 kts 346°
2026-05-07 06:39 26.28572 7.04104 34935 ft 477 kts 346°
2026-05-07 06:39 26.35185 7.03392 34935 ft 478 kts 346°
2026-05-07 06:40 26.41803 7.02681 34941 ft 478 kts 346°
2026-05-07 06:40 26.48424 7.01967 34932 ft 478 kts 346°
2026-05-07 06:41 26.55044 7.01254 34931 ft 478 kts 346°
2026-05-07 06:41 26.61664 7.00540 34931 ft 478 kts 346°
2026-05-07 06:42 26.68282 6.99822 34932 ft 478 kts 346°
2026-05-07 06:42 26.74867 6.99105 34923 ft 478 kts 346°
2026-05-07 06:43 26.81472 6.98392 34930 ft 476 kts 346°
2026-05-07 06:43 26.88074 6.97677 34923 ft 477 kts 346°
2026-05-07 06:44 26.94683 6.96955 34917 ft 477 kts 345°
2026-05-07 06:44 27.01292 6.96236 34943 ft 478 kts 345°
2026-05-07 06:45 27.07898 6.95518 34919 ft 477 kts 345°
2026-05-07 06:45 27.14498 6.94799 34919 ft 477 kts 345°
2026-05-07 06:46 27.21100 6.94078 34916 ft 477 kts 345°
2026-05-07 06:46 27.27706 6.93355 34916 ft 477 kts 345°
2026-05-07 06:47 27.34308 6.92633 34916 ft 477 kts 345°
2026-05-07 06:47 27.40872 6.91913 34914 ft 477 kts 345°
2026-05-07 06:48 27.47485 6.91188 34911 ft 477 kts 345°
2026-05-07 06:48 27.54095 6.90462 34911 ft 477 kts 345°
2026-05-07 06:49 27.60708 6.89735 34910 ft 477 kts 345°
2026-05-07 06:49 27.67318 6.89008 34910 ft 477 kts 345°
2026-05-07 06:50 27.73932 6.88278 34911 ft 477 kts 345°
2026-05-07 06:50 27.80540 6.87548 34912 ft 477 kts 345°
2026-05-07 06:51 27.87156 6.86818 34906 ft 477 kts 345°
2026-05-07 06:51 27.93769 6.86084 34914 ft 478 kts 345°
2026-05-07 06:52 28.00388 6.85351 34909 ft 478 kts 345°
2026-05-07 06:52 28.07012 6.84618 34908 ft 478 kts 345°
2026-05-07 06:53 28.13654 6.83982 34911 ft 484 kts 350°
2026-05-07 06:53 28.20411 6.83819 34932 ft 487 kts 351°
2026-05-07 06:54 28.27152 6.83749 34907 ft 488 kts 351°
2026-05-07 06:54 28.33948 6.83694 34909 ft 488 kts 351°
2026-05-07 06:55 28.40745 6.83632 34903 ft 488 kts 351°
2026-05-07 06:55 28.47544 6.83563 34903 ft 488 kts 351°
2026-05-07 06:56 28.54336 6.83492 34894 ft 488 kts 351°
2026-05-07 06:56 28.61132 6.83422 34886 ft 488 kts 351°
2026-05-07 06:57 28.67921 6.83351 34891 ft 488 kts 351°
2026-05-07 06:57 28.74711 6.83280 34903 ft 488 kts 351°
2026-05-07 06:58 28.81504 6.83208 34897 ft 488 kts 351°
2026-05-07 06:58 28.88294 6.83137 34889 ft 488 kts 351°
2026-05-07 06:59 28.95084 6.83069 34887 ft 488 kts 351°
2026-05-07 06:59 29.01875 6.82996 34887 ft 488 kts 351°
2026-05-07 07:00 29.08671 6.82923 34911 ft 489 kts 351°
2026-05-07 07:00 29.15467 6.82854 34890 ft 488 kts 351°
2026-05-07 07:01 29.22266 6.82780 34884 ft 488 kts 351°
2026-05-07 07:01 29.29059 6.82709 34882 ft 488 kts 351°
2026-05-07 07:02 29.35852 6.82638 34878 ft 488 kts 351°
2026-05-07 07:02 29.42642 6.82565 34875 ft 487 kts 351°
2026-05-07 07:03 29.49415 6.82496 34880 ft 487 kts 351°
2026-05-07 07:03 29.56193 6.82425 34872 ft 487 kts 351°
2026-05-07 07:04 29.62963 6.82351 34876 ft 487 kts 351°
2026-05-07 07:04 29.69736 6.82279 34865 ft 486 kts 351°
2026-05-07 07:05 29.76494 6.82208 34867 ft 485 kts 351°
2026-05-07 07:05 29.83245 6.82135 34868 ft 485 kts 351°
2026-05-07 07:06 29.89998 6.82062 34866 ft 485 kts 351°
2026-05-07 07:06 29.96752 6.81990 34873 ft 485 kts 351°
2026-05-07 07:07 30.03494 6.81920 34862 ft 484 kts 351°
2026-05-07 07:07 30.10227 6.81848 34862 ft 484 kts 351°
2026-05-07 07:08 30.16969 6.81775 34861 ft 484 kts 351°
2026-05-07 07:08 30.23705 6.81702 34875 ft 484 kts 351°
2026-05-07 07:09 30.30437 6.81630 34859 ft 483 kts 351°
2026-05-07 07:09 30.37163 6.81559 34851 ft 483 kts 351°
2026-05-07 07:10 30.43887 6.81485 34851 ft 484 kts 351°
2026-05-07 07:10 30.50617 6.81411 34845 ft 484 kts 351°
2026-05-07 07:11 30.57349 6.81339 34837 ft 484 kts 351°
2026-05-07 07:11 30.64077 6.81267 34837 ft 484 kts 351°
2026-05-07 07:12 30.70807 6.81194 34841 ft 484 kts 351°
2026-05-07 07:12 30.77494 6.81122 34843 ft 484 kts 351°
2026-05-07 07:13 30.84222 6.81049 34835 ft 484 kts 351°
2026-05-07 07:13 30.90966 6.80976 34826 ft 484 kts 351°
2026-05-07 07:14 30.97699 6.80902 34829 ft 484 kts 351°
2026-05-07 07:14 31.04434 6.80828 34823 ft 484 kts 351°
2026-05-07 07:15 31.11182 6.80754 34826 ft 485 kts 351°
2026-05-07 07:15 31.17945 6.80678 34821 ft 487 kts 351°
2026-05-07 07:16 31.24723 6.80604 34817 ft 487 kts 351°
2026-05-07 07:16 31.31494 6.80530 34819 ft 487 kts 351°
2026-05-07 07:17 31.38273 6.80457 34815 ft 488 kts 351°
2026-05-07 07:17 31.45026 6.80382 34812 ft 489 kts 351°
2026-05-07 07:18 31.51827 6.80307 34811 ft 489 kts 351°
2026-05-07 07:18 31.58629 6.80232 34807 ft 489 kts 351°
2026-05-07 07:19 31.65435 6.80157 34809 ft 489 kts 351°
2026-05-07 07:19 31.72240 6.80081 34803 ft 489 kts 351°
2026-05-07 07:20 31.79049 6.80006 34801 ft 489 kts 351°
2026-05-07 07:20 31.85858 6.79932 34814 ft 489 kts 351°
2026-05-07 07:21 31.92671 6.79856 34809 ft 489 kts 351°
2026-05-07 07:21 31.99467 6.79781 34804 ft 488 kts 351°
2026-05-07 07:22 32.06262 6.79705 34804 ft 488 kts 351°
2026-05-07 07:22 32.13054 6.79628 34805 ft 488 kts 351°
2026-05-07 07:23 32.18701 6.79564 34811 ft 488 kts 351°
2026-05-07 07:23 32.25518 6.79486 34804 ft 491 kts 351°
2026-05-07 07:24 32.32349 6.79409 34804 ft 491 kts 351°
2026-05-07 07:24 32.39183 6.79334 34809 ft 491 kts 351°
2026-05-07 07:25 32.49451 6.79216 34811 ft 495 kts 351°
2026-05-07 07:26 32.56354 6.79136 34814 ft 497 kts 351°
2026-05-07 07:26 32.63274 6.79061 34815 ft 497 kts 351°
2026-05-07 07:27 32.70196 6.78985 34817 ft 497 kts 351°
2026-05-07 07:27 32.77124 6.78906 34818 ft 499 kts 351°
2026-05-07 07:28 32.84079 6.78826 34817 ft 500 kts 351°
2026-05-07 07:28 32.91036 6.78747 34826 ft 500 kts 351°
2026-05-07 07:29 32.97993 6.78669 34859 ft 500 kts 350°
2026-05-07 07:29 33.04958 6.78589 34826 ft 501 kts 350°
2026-05-07 07:30 33.11940 6.78509 34828 ft 502 kts 350°
2026-05-07 07:30 33.18929 6.78429 34837 ft 502 kts 350°
2026-05-07 07:31 33.25915 6.78349 34851 ft 502 kts 350°
2026-05-07 07:31 33.32855 6.78270 34856 ft 502 kts 350°
2026-05-07 07:32 33.39841 6.78190 34855 ft 502 kts 350°
2026-05-07 07:32 33.46828 6.78110 34853 ft 502 kts 350°
2026-05-07 07:33 33.53809 6.78004 34858 ft 501 kts 348°
2026-05-07 07:33 33.60749 6.77595 34853 ft 499 kts 347°
2026-05-07 07:34 33.67681 6.77094 34853 ft 499 kts 347°
2026-05-07 07:34 33.74619 6.76633 34845 ft 500 kts 347°
2026-05-07 07:35 33.81560 6.76204 34843 ft 499 kts 347°
2026-05-07 07:35 33.88498 6.75784 34844 ft 499 kts 347°
2026-05-07 07:36 33.95429 6.75363 34849 ft 499 kts 347°
2026-05-07 07:36 34.02363 6.74939 34848 ft 499 kts 347°
2026-05-07 07:37 34.09294 6.74515 34852 ft 498 kts 346°
2026-05-07 07:37 34.16206 6.74091 34854 ft 497 kts 346°
2026-05-07 07:38 34.23116 6.73665 34852 ft 497 kts 346°
2026-05-07 07:38 34.30031 6.73238 34890 ft 498 kts 346°
2026-05-07 07:39 34.36943 6.72812 35070 ft 497 kts 346°
2026-05-07 07:39 34.40392 6.72600 35306 ft 495 kts 346°
2026-05-07 07:39 34.43825 6.72390 35548 ft 494 kts 346°
2026-05-07 07:39 34.47253 6.72180 35791 ft 492 kts 346°
2026-05-07 07:40 34.50664 6.71970 35993 ft 491 kts 346°
2026-05-07 07:40 34.54075 6.71759 36201 ft 489 kts 345°
2026-05-07 07:40 34.57472 6.71548 36433 ft 488 kts 345°
2026-05-07 07:40 34.60863 6.71337 36647 ft 487 kts 345°
2026-05-07 07:41 34.64242 6.71127 36825 ft 486 kts 345°
2026-05-07 07:41 34.71019 6.70700 36876 ft 487 kts 345°
2026-05-07 07:42 34.77776 6.70281 36887 ft 486 kts 345°
2026-05-07 07:42 34.84527 6.69861 36892 ft 486 kts 345°
2026-05-07 07:43 34.91292 6.69443 36899 ft 487 kts 345°
2026-05-07 07:43 34.98066 6.69029 36909 ft 487 kts 345°
2026-05-07 07:44 35.04839 6.68614 36914 ft 487 kts 345°
2026-05-07 07:44 35.11614 6.68195 36927 ft 488 kts 345°
2026-05-07 07:45 35.18406 6.67773 36935 ft 489 kts 345°
2026-05-07 07:45 35.25209 6.67356 36934 ft 490 kts 345°
2026-05-07 07:46 35.32025 6.66936 36957 ft 489 kts 345°
2026-05-07 07:46 35.38818 6.66503 36947 ft 490 kts 344°
2026-05-07 07:47 35.45637 6.66078 36942 ft 490 kts 344°
2026-05-07 07:47 35.52449 6.65664 36951 ft 490 kts 344°
2026-05-07 07:48 35.59265 6.65243 36963 ft 491 kts 344°
2026-05-07 07:48 35.66080 6.64818 36946 ft 490 kts 344°
2026-05-07 07:49 35.72896 6.64392 36946 ft 490 kts 344°
2026-05-07 07:49 35.79712 6.63964 36947 ft 490 kts 344°
2026-05-07 07:50 35.86532 6.63536 36946 ft 490 kts 344°
2026-05-07 07:50 35.93348 6.63107 36947 ft 490 kts 344°
2026-05-07 07:51 36.00167 6.62678 36958 ft 490 kts 344°
2026-05-07 07:51 36.06985 6.62247 36991 ft 491 kts 344°
2026-05-07 07:52 36.13800 6.61817 36978 ft 490 kts 344°
2026-05-07 07:52 36.20608 6.61387 36994 ft 489 kts 344°
2026-05-07 07:53 36.27417 6.60972 36987 ft 493 kts 346°
2026-05-07 07:53 36.30892 6.61150 36998 ft 505 kts 353°
2026-05-07 07:53 36.34398 6.61568 37000 ft 507 kts 354°
2026-05-07 07:54 36.41401 6.62598 36988 ft 507 kts 355°
2026-05-07 07:54 36.48393 6.63700 36974 ft 506 kts 355°
2026-05-07 07:55 36.55370 6.64781 36958 ft 505 kts 354°
2026-05-07 07:55 36.62351 6.65851 36945 ft 505 kts 354°
2026-05-07 07:56 36.69335 6.66921 36942 ft 505 kts 354°
2026-05-07 07:56 36.76312 6.67991 36939 ft 505 kts 354°
2026-05-07 07:57 36.83290 6.69059 36953 ft 505 kts 354°
2026-05-07 07:57 36.90282 6.70136 36933 ft 506 kts 354°
2026-05-07 07:58 36.97275 6.71213 36945 ft 507 kts 354°
2026-05-07 07:58 37.04273 6.72293 36939 ft 507 kts 354°
2026-05-07 07:59 37.11270 6.73371 36937 ft 507 kts 354°
2026-05-07 07:59 37.18267 6.74453 36943 ft 507 kts 354°
2026-05-07 08:00 37.25224 6.75532 36942 ft 507 kts 354°
2026-05-07 08:00 37.32226 6.76621 36944 ft 507 kts 354°
2026-05-07 08:01 37.39211 6.77711 36946 ft 505 kts 354°
2026-05-07 08:01 37.46194 6.78800 36944 ft 505 kts 354°
2026-05-07 08:02 37.53173 6.79889 36970 ft 506 kts 353°
2026-05-07 08:02 37.60151 6.80982 36944 ft 505 kts 353°
2026-05-07 08:03 37.67122 6.82076 36946 ft 505 kts 353°
2026-05-07 08:03 37.74094 6.83171 36949 ft 505 kts 353°
2026-05-07 08:04 37.81072 6.84270 36938 ft 505 kts 353°
2026-05-07 08:04 37.88034 6.85371 36948 ft 502 kts 353°
2026-05-07 08:05 37.94962 6.86470 36951 ft 501 kts 353°
2026-05-07 08:05 38.00716 6.87378 36977 ft 501 kts 353°
2026-05-07 08:06 38.07626 6.88474 36957 ft 500 kts 353°
2026-05-07 08:06 38.14538 6.89572 36963 ft 500 kts 353°
2026-05-07 08:07 38.21443 6.90670 36966 ft 500 kts 353°
2026-05-07 08:07 38.28348 6.91771 36966 ft 500 kts 353°
2026-05-07 08:08 38.35256 6.92875 36966 ft 500 kts 353°
2026-05-07 08:08 38.42167 6.93983 36966 ft 500 kts 353°
2026-05-07 08:09 38.49075 6.95091 36974 ft 500 kts 353°
2026-05-07 08:09 38.55966 6.96202 36964 ft 499 kts 353°
2026-05-07 08:10 38.62848 6.97310 36975 ft 499 kts 353°
2026-05-07 08:10 38.69736 6.98420 36995 ft 499 kts 353°
2026-05-07 08:11 38.76614 6.99532 36975 ft 498 kts 353°
2026-05-07 08:11 38.83490 7.00646 36980 ft 498 kts 353°
2026-05-07 08:12 38.90364 7.01762 36972 ft 498 kts 353°
2026-05-07 08:12 38.97234 7.02880 36977 ft 497 kts 354°
2026-05-07 08:13 39.04078 7.03938 36980 ft 493 kts 352°
2026-05-07 08:13 39.10891 7.04727 36979 ft 491 kts 351°
2026-05-07 08:14 39.17700 7.05474 36981 ft 491 kts 352°
2026-05-07 08:14 39.24518 7.06262 36981 ft 492 kts 352°
2026-05-07 08:15 39.31340 7.07079 36985 ft 492 kts 352°
2026-05-07 08:15 39.38161 7.07903 36994 ft 493 kts 353°
2026-05-07 08:16 39.44987 7.08729 36983 ft 493 kts 353°
2026-05-07 08:16 39.51818 7.09556 36983 ft 493 kts 353°
2026-05-07 08:17 39.58649 7.10384 36987 ft 493 kts 353°
2026-05-07 08:17 39.65481 7.11213 36989 ft 493 kts 354°
2026-05-07 08:18 39.72313 7.12045 36994 ft 493 kts 354°
2026-05-07 08:18 39.79144 7.12878 36987 ft 493 kts 354°
2026-05-07 08:19 39.85981 7.13712 36988 ft 493 kts 355°
2026-05-07 08:19 39.92809 7.14549 36991 ft 493 kts 355°
2026-05-07 08:20 39.99635 7.15386 36993 ft 493 kts 355°
2026-05-07 08:20 40.06458 7.16224 36998 ft 492 kts 356°
2026-05-07 08:21 40.13273 7.17064 36995 ft 491 kts 356°
2026-05-07 08:21 40.20081 7.17906 36995 ft 491 kts 356°
2026-05-07 08:22 40.26890 7.18816 37023 ft 492 kts 357°
2026-05-07 08:22 40.33686 7.19761 37007 ft 490 kts 357°
2026-05-07 08:23 40.40471 7.20698 37003 ft 490 kts 357°
2026-05-07 08:23 40.47206 7.21619 37007 ft 490 kts 357°
2026-05-07 08:24 40.53984 7.22545 37011 ft 490 kts 357°
2026-05-07 08:24 40.60764 7.23474 37006 ft 490 kts 357°
2026-05-07 08:25 40.67544 7.24405 37009 ft 490 kts 357°
2026-05-07 08:25 40.74324 7.25339 37010 ft 490 kts 358°
2026-05-07 08:26 40.84487 7.26742 37010 ft 490 kts 358°
2026-05-07 08:26 40.91263 7.27680 37038 ft 490 kts 358°
2026-05-07 08:27 40.98037 7.28619 37015 ft 490 kts 358°
2026-05-07 08:27 41.04812 7.29560 37017 ft 490 kts 358°
2026-05-07 08:28 41.11588 7.30504 37015 ft 490 kts 358°
2026-05-07 08:28 41.18365 7.31450 37015 ft 490 kts 358°
2026-05-07 08:29 41.25137 7.32397 37015 ft 490 kts 358°
2026-05-07 08:29 41.31913 7.33346 37021 ft 490 kts 358°
2026-05-07 08:30 41.38690 7.34298 37019 ft 489 kts 359°
2026-05-07 08:30 41.45459 7.35250 37022 ft 489 kts 359°
2026-05-07 08:31 41.52230 7.36205 37019 ft 489 kts 359°
2026-05-07 08:31 41.58996 7.37161 37023 ft 489 kts 359°
2026-05-07 08:32 41.65752 7.38118 37017 ft 488 kts 359°
2026-05-07 08:32 41.72508 7.39076 37023 ft 488 kts 359°
2026-05-07 08:33 41.79257 7.40036 37022 ft 488 kts 359°
2026-05-07 08:33 41.86006 7.40997 37020 ft 487 kts 359°
2026-05-07 08:34 41.92747 7.41960 37020 ft 487 kts 359°
2026-05-07 08:34 41.99491 7.42925 37019 ft 487 kts 359°
2026-05-07 08:35 42.06184 7.43885 37017 ft 487 kts 359°
2026-05-07 08:35 42.12971 7.44860 37015 ft 487 kts 359°
2026-05-07 08:36 42.19711 7.45830 37017 ft 487 kts 359°
2026-05-07 08:36 42.26452 7.46804 37015 ft 487 kts 359°
2026-05-07 08:37 42.33145 7.47772 37015 ft 487 kts 359°
2026-05-07 08:37 42.39881 7.48748 37017 ft 487 kts 359°
2026-05-07 08:38 42.46614 7.49726 37006 ft 486 kts 359°
2026-05-07 08:38 42.53335 7.50705 37007 ft 486 kts 359°
2026-05-07 08:39 42.60065 7.51687 37007 ft 486 kts 359°
2026-05-07 08:39 42.66785 7.52669 37005 ft 486 kts 359°
2026-05-07 08:40 42.73515 7.53655 37004 ft 486 kts 359°
2026-05-07 08:40 42.80239 7.54642 37001 ft 486 kts 359°
2026-05-07 08:41 42.86956 7.55632 36998 ft 485 kts 359°
2026-05-07 08:41 42.93674 7.56622 36998 ft 485 kts 359°
2026-05-07 08:42 43.00389 7.57614 37001 ft 485 kts 360°
2026-05-07 08:42 43.07093 7.58608 36994 ft 484 kts 360°
2026-05-07 08:43 43.13794 7.59672 36988 ft 486 kts
2026-05-07 08:43 43.20482 7.61209 36998 ft 488 kts
2026-05-07 08:44 43.27163 7.62852 36999 ft 487 kts
2026-05-07 08:44 43.33837 7.64432 36996 ft 487 kts
2026-05-07 08:45 43.40478 7.65961 37002 ft 487 kts
2026-05-07 08:45 43.47162 7.67490 36997 ft 487 kts
2026-05-07 08:46 43.53844 7.69023 37003 ft 487 kts
2026-05-07 08:46 43.60533 7.70564 37005 ft 487 kts
2026-05-07 08:47 43.67229 7.72111 36999 ft 488 kts
2026-05-07 08:47 43.73919 7.73660 36999 ft 488 kts
2026-05-07 08:48 43.80563 7.75771 37006 ft 496 kts 16°
2026-05-07 08:48 43.83705 7.77815 37000 ft 503 kts 27°
2026-05-07 08:48 43.86624 7.80507 37001 ft 506 kts 32°
2026-05-07 08:49 43.92260 7.86388 36996 ft 508 kts 33°
2026-05-07 08:49 43.98345 7.91108 36996 ft 497 kts 18°
2026-05-07 08:50 44.04771 7.94573 37004 ft 494 kts 15°
2026-05-07 08:50 44.10149 7.97248 36977 ft 494 kts 15°
2026-05-07 08:51 44.16648 8.00451 36996 ft 497 kts 15°
2026-05-07 08:51 44.23159 8.03698 36998 ft 497 kts 15°
2026-05-07 08:52 44.29657 8.06968 36999 ft 496 kts 15°
2026-05-07 08:52 44.36153 8.10250 37008 ft 496 kts 15°
2026-05-07 08:53 44.42648 8.13540 37008 ft 496 kts 15°
2026-05-07 08:53 44.49135 8.16832 37007 ft 496 kts 15°
2026-05-07 08:54 44.55635 8.20138 37009 ft 497 kts 15°
2026-05-07 08:54 44.62128 8.23448 37008 ft 497 kts 15°
2026-05-07 08:55 44.68618 8.26763 37005 ft 496 kts 15°
2026-05-07 08:55 44.75108 8.30088 37009 ft 496 kts 15°
2026-05-07 08:56 44.81584 8.33413 37007 ft 495 kts 15°
2026-05-07 08:56 44.88062 8.36746 37002 ft 495 kts 15°
2026-05-07 08:57 44.94537 8.40085 37006 ft 496 kts 16°
2026-05-07 08:57 45.01014 8.43435 37007 ft 496 kts 16°
2026-05-07 08:58 45.07491 8.46793 37013 ft 496 kts 16°
2026-05-07 08:58 45.13977 8.50163 37000 ft 497 kts 16°
2026-05-07 08:59 45.20468 8.53544 36996 ft 497 kts 16°
2026-05-07 08:59 45.26960 8.56934 37006 ft 497 kts 17°
2026-05-07 09:00 45.33446 8.60329 36993 ft 497 kts 17°
2026-05-07 09:00 45.39884 8.63708 36993 ft 497 kts 17°
2026-05-07 09:01 45.46371 8.67120 37030 ft 497 kts 17°
2026-05-07 09:01 45.52880 8.70552 37022 ft 495 kts 17°
2026-05-07 09:02 45.59299 8.73946 37017 ft 495 kts 17°
2026-05-07 09:02 45.65756 8.77367 37025 ft 495 kts 17°
2026-05-07 09:03 45.72212 8.80797 37003 ft 495 kts 17°
2026-05-07 09:03 45.78663 8.84231 37017 ft 495 kts 17°
2026-05-07 09:04 45.85119 8.87677 37026 ft 495 kts 17°
2026-05-07 09:04 45.91575 8.91132 37021 ft 495 kts 17°
2026-05-07 09:05 45.98039 8.94600 37023 ft 495 kts 17°
2026-05-07 09:05 46.04492 8.98073 37026 ft 495 kts 18°
2026-05-07 09:06 46.10942 9.01551 37021 ft 495 kts 18°
2026-05-07 09:06 46.17562 9.03875 37019 ft 486 kts
2026-05-07 09:07 46.24289 9.04005 37022 ft 483 kts 355°
2026-05-07 09:07 46.31011 9.03717 37017 ft 483 kts 354°
2026-05-07 09:08 46.37727 9.03370 37017 ft 483 kts 354°
2026-05-07 09:08 46.44449 9.03049 37026 ft 483 kts 354°
2026-05-07 09:09 46.51176 9.02752 37024 ft 483 kts 355°
2026-05-07 09:09 46.57903 9.02460 37035 ft 484 kts 355°
2026-05-07 09:10 46.64623 9.02172 37036 ft 483 kts 355°
2026-05-07 09:10 46.71347 9.01880 37041 ft 484 kts 355°
2026-05-07 09:11 46.78073 9.01584 37038 ft 484 kts 355°
2026-05-07 09:11 46.84806 9.01288 37043 ft 484 kts 355°
2026-05-07 09:12 46.91533 9.00991 37056 ft 484 kts 355°
2026-05-07 09:12 46.98252 9.00694 37046 ft 482 kts 355°
2026-05-07 09:13 47.04959 9.00397 37066 ft 483 kts 355°
2026-05-07 09:13 47.11672 9.00097 37047 ft 482 kts 355°
2026-05-07 09:14 47.18379 8.99798 37049 ft 482 kts 355°
2026-05-07 09:14 47.25082 8.99499 37054 ft 482 kts 355°
2026-05-07 09:15 47.31791 8.99200 37047 ft 482 kts 355°
2026-05-07 09:15 47.38502 8.98899 37048 ft 482 kts 355°
2026-05-07 09:16 47.45209 8.98597 37052 ft 482 kts 355°
2026-05-07 09:16 47.51918 8.98294 37044 ft 482 kts 356°
2026-05-07 09:17 47.58627 8.97991 37040 ft 482 kts 356°
2026-05-07 09:17 47.65337 8.97687 37039 ft 482 kts 356°
2026-05-07 09:18 47.72042 8.97382 37033 ft 482 kts 356°
2026-05-07 09:18 47.78745 8.97077 37034 ft 482 kts 356°
2026-05-07 09:19 47.85455 8.96771 37036 ft 482 kts 356°
2026-05-07 09:19 47.92159 8.96464 37029 ft 482 kts 356°
2026-05-07 09:20 47.98862 8.96156 37031 ft 482 kts 356°
2026-05-07 09:20 48.05564 8.95847 37026 ft 482 kts 356°
2026-05-07 09:21 48.12259 8.95538 36915 ft 480 kts 356°
2026-05-07 09:21 48.15596 8.95430 36806 ft 480 kts 359°
2026-05-07 09:21 48.18920 8.95746 36566 ft 479 kts
2026-05-07 09:22 48.22231 8.96202 36080 ft 478 kts
2026-05-07 09:22 48.25502 8.96681 35413 ft 477 kts
2026-05-07 09:22 48.28704 8.97159 34701 ft 478 kts
2026-05-07 09:22 48.32015 8.97658 34021 ft 477 kts
2026-05-07 09:23 48.35312 8.98157 33234 ft 476 kts
2026-05-07 09:23 48.38593 8.98655 32512 ft 472 kts
2026-05-07 09:23 48.41837 8.99150 31648 ft 464 kts
2026-05-07 09:23 48.45024 8.99635 30685 ft 458 kts
2026-05-07 09:24 48.48203 9.00122 30139 ft 459 kts
2026-05-07 09:24 48.51367 9.00606 29547 ft 456 kts
2026-05-07 09:24 48.54515 9.01085 28951 ft 452 kts
2026-05-07 09:24 48.57628 9.01561 28379 ft 448 kts
2026-05-07 09:25 48.60717 9.02034 27853 ft 444 kts
2026-05-07 09:25 48.63775 9.02507 27348 ft 439 kts
2026-05-07 09:25 48.66786 9.03165 26853 ft 435 kts
2026-05-07 09:25 48.69759 9.03917 26369 ft 431 kts
2026-05-07 09:26 48.72703 9.04658 25870 ft 428 kts
2026-05-07 09:26 48.75631 9.05380 25370 ft 424 kts
2026-05-07 09:26 48.78534 9.06087 24882 ft 421 kts
2026-05-07 09:26 48.81422 9.06785 24386 ft 419 kts
2026-05-07 09:27 48.84288 9.07476 23896 ft 416 kts
2026-05-07 09:27 48.87141 9.08162 23367 ft 414 kts
2026-05-07 09:27 48.92800 9.09207 22358 ft 405 kts
2026-05-07 09:28 48.95600 9.09557 21912 ft 402 kts
2026-05-07 09:28 48.98356 9.09917 21671 ft 392 kts
2026-05-07 09:28 49.01038 9.10281 21414 ft 384 kts
2026-05-07 09:28 49.03691 9.10643 20961 ft 381 kts
2026-05-07 09:29 49.06310 9.11010 20522 ft 374 kts
2026-05-07 09:29 49.08892 9.11376 20099 ft 372 kts
2026-05-07 09:29 49.11461 9.11740 19677 ft 370 kts
2026-05-07 09:29 49.14016 9.12104 19266 ft 368 kts
2026-05-07 09:30 49.16557 9.12467 18861 ft 366 kts
2026-05-07 09:30 49.19087 9.12829 18445 ft 364 kts
2026-05-07 09:30 49.21607 9.13190 18020 ft 363 kts
2026-05-07 09:30 49.24118 9.13550 17558 ft 362 kts
2026-05-07 09:31 49.26622 9.13909 17098 ft 361 kts
2026-05-07 09:31 49.29111 9.14447 16649 ft 360 kts
2026-05-07 09:31 49.31553 9.15260 16202 ft 359 kts 11°
2026-05-07 09:31 49.33983 9.16124 15771 ft 358 kts 11°
2026-05-07 09:32 49.36401 9.16988 15351 ft 356 kts 11°
2026-05-07 09:32 49.38815 9.17848 14932 ft 355 kts 11°
2026-05-07 09:32 49.41213 9.18701 14535 ft 353 kts 12°
2026-05-07 09:32 49.42793 9.19263 14293 ft 351 kts 12°
2026-05-07 09:33 49.45163 9.20106 13934 ft 348 kts 11°
2026-05-07 09:33 49.47499 9.20938 13554 ft 341 kts 11°
2026-05-07 09:33 49.49791 9.21742 13149 ft 334 kts
2026-05-07 09:33 49.52055 9.22087 12754 ft 319 kts 356°
2026-05-07 09:34 49.54208 9.21744 12384 ft 308 kts 349°
2026-05-07 09:34 49.56318 9.21178 12004 ft 308 kts 347°
2026-05-07 09:34 49.58423 9.20555 11621 ft 308 kts 347°
2026-05-07 09:34 49.60527 9.19910 11250 ft 308 kts 346°
2026-05-07 09:35 49.62620 9.19257 10927 ft 304 kts 346°
2026-05-07 09:35 49.64645 9.18623 10635 ft 289 kts 346°
2026-05-07 09:35 49.66593 9.18010 10355 ft 286 kts 345°
2026-05-07 09:35 49.68539 9.17392 10074 ft 285 kts 345°
2026-05-07 09:36 49.70479 9.16776 9759 ft 284 kts 345°
2026-05-07 09:36 49.72394 9.16166 9441 ft 279 kts 345°
2026-05-07 09:36 49.74276 9.15566 9124 ft 274 kts 345°
2026-05-07 09:36 49.76123 9.14978 8812 ft 269 kts 345°
2026-05-07 09:37 49.77943 9.14397 8497 ft 265 kts 346°
2026-05-07 09:37 49.79738 9.13824 8194 ft 263 kts 346°
2026-05-07 09:37 49.81529 9.13250 7887 ft 262 kts 346°
2026-05-07 09:37 49.83308 9.12680 7624 ft 261 kts 346°
2026-05-07 09:38 49.85079 9.12112 7390 ft 258 kts 347°
2026-05-07 09:38 49.86834 9.11550 7138 ft 257 kts 347°
2026-05-07 09:38 49.88577 9.10991 6884 ft 255 kts 347°
2026-05-07 09:38 49.90314 9.10434 6634 ft 254 kts 347°
2026-05-07 09:39 49.92044 9.09877 6380 ft 253 kts 347°
2026-05-07 09:39 49.93766 9.09324 6129 ft 252 kts 348°
2026-05-07 09:39 49.95451 9.08626 5860 ft 250 kts 338°
2026-05-07 09:39 49.97030 9.07538 5609 ft 245 kts 334°
2026-05-07 09:40 49.98543 9.06390 5410 ft 240 kts 334°
2026-05-07 09:40 50.00024 9.05250 5206 ft 236 kts 333°
2026-05-07 09:40 50.01481 9.04126 5005 ft 231 kts 334°
2026-05-07 09:40 50.02911 9.03018 4808 ft 228 kts 334°
2026-05-07 09:41 50.04323 9.01922 4605 ft 226 kts 334°
2026-05-07 09:41 50.05724 9.00831 4379 ft 224 kts 334°
2026-05-07 09:41 50.07117 8.99744 4186 ft 223 kts 334°
2026-05-07 09:41 50.08493 8.98638 4002 ft 222 kts 329°
2026-05-07 09:42 50.09525 8.96901 3982 ft 219 kts 297°
2026-05-07 09:42 50.09990 8.94720 3985 ft 207 kts 285°
2026-05-07 09:42 50.10281 8.92606 4016 ft 192 kts 284°
2026-05-07 09:42 50.10531 8.90622 3996 ft 184 kts 284°
2026-05-07 09:43 50.10739 8.88646 3984 ft 187 kts 276°
2026-05-07 09:43 50.10600 8.86620 3982 ft 189 kts 258°
2026-05-07 09:43 50.10194 8.84666 3942 ft 191 kts 253°
2026-05-07 09:43 50.09730 8.82715 3723 ft 192 kts 253°
2026-05-07 09:44 50.09267 8.80765 3457 ft 193 kts 253°
2026-05-07 09:44 50.08803 8.78804 3150 ft 193 kts 253°
2026-05-07 09:44 50.08342 8.76862 2874 ft 190 kts 252°
2026-05-07 09:44 50.07892 8.74973 2623 ft 181 kts 252°
2026-05-07 09:45 50.07469 8.73198 2407 ft 171 kts 252°
2026-05-07 09:45 50.07058 8.71471 2158 ft 169 kts 252°
2026-05-07 09:45 50.06665 8.69812 1922 ft 156 kts 252°
2026-05-07 09:45 50.06302 8.68288 1722 ft 144 kts 252°
2026-05-07 09:46 50.05958 8.66851 1513 ft 141 kts 253°
2026-05-07 09:46 50.05619 8.65423 1330 ft 140 kts 252°
2026-05-07 09:46 50.05279 8.63997 1134 ft 141 kts 252°
2026-05-07 09:46 50.04943 8.62568 936 ft 141 kts 252°
2026-05-07 09:47 50.04597 8.61158 739 ft 139 kts 250°
2026-05-07 09:47 50.04245 8.59768 516 ft 135 kts 255°
2026-05-07 09:47 50.03939 8.58402 400 ft 136 kts 250°
2026-05-07 09:47 50.03647 8.57171 364 ft 97 kts 250°
2026-05-07 09:48 50.03477 8.56449 359 ft 45 kts 250°
2026-05-07 09:48 50.03437 8.56125 362 ft 27 kts 268°
2026-05-07 09:48 50.03456 8.55864 349 ft 17 kts 281°
2026-05-07 09:48 50.03469 8.55760 354 ft 5 kts 281°
2026-05-07 09:49 50.03470 8.55753 353 ft 0 kts 280°
2026-05-07 09:49 50.03470 8.55750 353 ft 3 kts 280°
2026-05-07 09:50 50.03479 8.55675 357 ft 9 kts 280°
2026-05-07 09:50 50.03488 8.55587 349 ft 8 kts 279°
2026-05-07 09:50 50.03489 8.55486 353 ft 10 kts 263°
2026-05-07 09:50 50.03465 8.55360 356 ft 14 kts 250°
2026-05-07 09:51 50.03434 8.55229 357 ft 12 kts 249°
2026-05-07 09:51 50.03407 8.55117 352 ft 11 kts 249°
2026-05-07 09:51 50.03378 8.54999 351 ft 13 kts 250°
2026-05-07 09:51 50.03342 8.54849 352 ft 15 kts 249°
2026-05-07 09:52 50.03306 8.54698 349 ft 15 kts 250°
2026-05-07 09:52 50.03276 8.54566 353 ft 12 kts 257°
2026-05-07 09:52 50.03315 8.54479 354 ft 10 kts 336°
2026-05-07 09:52 50.03369 8.54446 349 ft 6 kts 340°
2026-05-07 09:53 50.03376 8.54442 347 ft 0 kts 339°
2026-05-07 09:55 50.03380 8.54440 352 ft 5 kts 339°
2026-05-07 09:55 50.03468 8.54389 355 ft 15 kts 340°
2026-05-07 09:56 50.03569 8.54332 354 ft 14 kts 340°
2026-05-07 09:56 50.03645 8.54318 355 ft 10 kts 27°
2026-05-07 09:56 50.03682 8.54415 355 ft 11 kts 67°
2026-05-07 09:56 50.03710 8.54530 356 ft 12 kts 70°
2026-05-07 09:57 50.03748 8.54690 358 ft 18 kts 70°
2026-05-07 09:57 50.03793 8.54880 358 ft 19 kts 69°
2026-05-07 09:57 50.03839 8.55065 360 ft 18 kts 70°
2026-05-07 09:57 50.03883 8.55252 363 ft 19 kts 70°
2026-05-07 09:58 50.03929 8.55446 361 ft 19 kts 70°
2026-05-07 09:58 50.03975 8.55641 360 ft 19 kts 69°
2026-05-07 09:58 50.04014 8.55800 363 ft 10 kts 69°
2026-05-07 09:58 50.04032 8.55875 361 ft 3 kts 69°
2026-05-07 09:59 50.04032 8.55876 361 ft 0 kts 69°
2026-05-07 09:59 50.04041 8.55914 360 ft 9 kts 70°
2026-05-07 09:59 50.04084 8.55964 363 ft 8 kts
2026-05-07 09:59 50.04149 8.55938 363 ft 13 kts 340°
2026-05-07 10:00 50.04234 8.55938 361 ft 12 kts 25°
2026-05-07 10:00 50.04316 8.55941 365 ft 12 kts 343°
2026-05-07 10:00 50.04401 8.55909 362 ft 12 kts 357°
2026-05-07 10:00 50.04486 8.55936 366 ft 13 kts 15°
2026-05-07 10:01 50.04560 8.56008 369 ft 11 kts 58°
2026-05-07 10:01 50.04589 8.56111 367 ft 10 kts 69°
2026-05-07 10:01 50.04614 8.56218 366 ft 9 kts 70°
2026-05-07 10:01 50.04650 8.56270 363 ft 7 kts 24°
2026-05-07 10:02 50.04690 8.56288 365 ft 5 kts 358°
2026-05-07 10:02 50.04719 8.56276 364 ft 2 kts 342°
2026-05-07 10:02 50.04726 8.56272 367 ft 0 kts 342°